Wetterdaten: Donnerstag, 05.02.2026
Datum Zeit Außen Temp. Server Temp. +20m Feuchte Feuchte +20m Luftdruck Regen Wind Richtung Richtung Sonnenschein Helligkeit Solar Taupunkt
05.02.2026 00:09 -2,4 °C 6,9 °C -2,6 °C 88 % 88 % 998,9 hPa 0,00 l/m² 51,3 km/h (7 Bft) S-SW 195 ° 0 min 0 lux 0 W/m² -4,1 °C
05.02.2026 00:24 -2,2 °C 7,0 °C -2,6 °C 88 % 88 % 998,9 hPa 0,00 l/m² 51,3 km/h (7 Bft) S-SW 195 ° 0 min 0 lux 0 W/m² -3,9 °C
05.02.2026 00:39 -2,1 °C 7,0 °C -2,3 °C 88 % 88 % 998,9 hPa 0,00 l/m² 51,3 km/h (7 Bft) S-SW 195 ° 0 min 0 lux 0 W/m² -3,8 °C
05.02.2026 00:54 -2,0 °C 6,9 °C -2,2 °C 88 % 89 % 998,9 hPa 0,00 l/m² 51,3 km/h (7 Bft) S-SW 195 ° 0 min 0 lux 0 W/m² -3,7 °C
05.02.2026 01:09 -2,1 °C 7,0 °C -2,3 °C 88 % 88 % 998,9 hPa 0,00 l/m² 51,3 km/h (7 Bft) S-SW 195 ° 0 min 0 lux 0 W/m² -3,8 °C
05.02.2026 01:24 -2,1 °C 6,9 °C -2,3 °C 89 % 89 % 998,9 hPa 0,00 l/m² 51,3 km/h (7 Bft) S-SW 195 ° 0 min 0 lux 0 W/m² -3,7 °C
05.02.2026 01:39 -2,1 °C 6,8 °C -2,4 °C 89 % 89 % 998,9 hPa 0,00 l/m² 51,3 km/h (7 Bft) S-SW 195 ° 0 min 0 lux 0 W/m² -3,7 °C
05.02.2026 01:54 -2,2 °C 6,9 °C -2,5 °C 89 % 89 % 998,9 hPa 0,00 l/m² 51,3 km/h (7 Bft) S-SW 195 ° 0 min 0 lux 0 W/m² -3,8 °C
05.02.2026 02:09 -2,2 °C 6,9 °C -2,4 °C 89 % 90 % 998,9 hPa 0,00 l/m² 51,3 km/h (7 Bft) S-SW 195 ° 0 min 0 lux 0 W/m² -3,8 °C
05.02.2026 02:24 -2,2 °C 6,8 °C -2,5 °C 89 % 90 % 998,9 hPa 0,00 l/m² 51,3 km/h (7 Bft) S-SW 195 ° 0 min 0 lux 0 W/m² -3,8 °C
05.02.2026 02:39 -2,2 °C 6,8 °C -2,5 °C 89 % 90 % 997,9 hPa 0,00 l/m² 51,3 km/h (7 Bft) S-SW 195 ° 0 min 0 lux 0 W/m² -3,8 °C
05.02.2026 02:55 -2,3 °C 6,8 °C -2,5 °C 89 % 91 % 997,9 hPa 0,00 l/m² 51,3 km/h (7 Bft) S-SW 195 ° 0 min 0 lux 0 W/m² -3,9 °C
05.02.2026 03:09 -2,4 °C 6,8 °C -2,4 °C 89 % 91 % 997,9 hPa 0,00 l/m² 51,3 km/h (7 Bft) S-SW 195 ° 0 min 0 lux 0 W/m² -4,0 °C
05.02.2026 03:24 -2,1 °C 6,8 °C -2,4 °C 89 % 90 % 997,9 hPa 0,00 l/m² 51,3 km/h (7 Bft) S-SW 195 ° 0 min 0 lux 0 W/m² -3,7 °C
05.02.2026 03:39 -2,2 °C 6,8 °C -2,4 °C 89 % 90 % 997,9 hPa 0,00 l/m² 51,3 km/h (7 Bft) S-SW 195 ° 0 min 0 lux 0 W/m² -3,8 °C
05.02.2026 03:54 -2,1 °C 6,8 °C -2,5 °C 89 % 89 % 997,9 hPa 0,00 l/m² 51,3 km/h (7 Bft) S-SW 195 ° 0 min 0 lux 0 W/m² -3,7 °C
05.02.2026 04:09 -2,3 °C 6,8 °C -2,6 °C 88 % 89 % 997,9 hPa 0,00 l/m² 51,3 km/h (7 Bft) S-SW 195 ° 0 min 0 lux 0 W/m² -4,0 °C
05.02.2026 04:24 -2,5 °C 6,8 °C -2,9 °C 88 % 89 % 997,9 hPa 0,00 l/m² 51,3 km/h (7 Bft) S-SW 195 ° 0 min 0 lux 0 W/m² -4,2 °C
05.02.2026 04:39 -2,6 °C 6,7 °C -3,0 °C 88 % 89 % 997,9 hPa 0,00 l/m² 51,3 km/h (7 Bft) S-SW 195 ° 0 min 0 lux 0 W/m² -4,3 °C
05.02.2026 04:54 -2,7 °C 6,7 °C -3,1 °C 88 % 89 % 997,9 hPa 0,00 l/m² 51,3 km/h (7 Bft) S-SW 195 ° 0 min 0 lux 0 W/m² -4,4 °C
05.02.2026 05:09 -2,8 °C 6,7 °C -3,1 °C 89 % 89 % 998,0 hPa 0,00 l/m² 51,3 km/h (7 Bft) S-SW 195 ° 0 min 0 lux 0 W/m² -4,4 °C
05.02.2026 05:24 -2,8 °C 6,7 °C -3,1 °C 89 % 90 % 996,9 hPa 0,00 l/m² 51,3 km/h (7 Bft) S-SW 195 ° 0 min 0 lux 0 W/m² -4,4 °C
05.02.2026 05:39 -2,8 °C 6,7 °C -3,2 °C 89 % 90 % 996,9 hPa 0,00 l/m² 51,3 km/h (7 Bft) S-SW 195 ° 0 min 0 lux 0 W/m² -4,4 °C
05.02.2026 05:54 -2,7 °C 6,7 °C -3,1 °C 89 % 91 % 996,9 hPa 0,00 l/m² 51,3 km/h (7 Bft) S-SW 195 ° 0 min 0 lux 0 W/m² -4,3 °C
05.02.2026 06:09 -2,8 °C 6,7 °C -3,1 °C 90 % 90 % 996,9 hPa 0,00 l/m² 51,3 km/h (7 Bft) S-SW 195 ° 0 min 0 lux 0 W/m² -4,2 °C
05.02.2026 06:24 -2,9 °C 6,6 °C -3,1 °C 90 % 90 % 996,9 hPa 0,00 l/m² 51,3 km/h (7 Bft) S-SW 195 ° 0 min 0 lux 0 W/m² -4,3 °C
05.02.2026 06:39 -2,9 °C 6,6 °C -3,3 °C 90 % 91 % 996,9 hPa 0,00 l/m² 51,3 km/h (7 Bft) S-SW 195 ° 0 min 0 lux 0 W/m² -4,3 °C
05.02.2026 06:54 -2,9 °C 6,6 °C -3,4 °C 90 % 91 % 996,9 hPa 0,00 l/m² 51,3 km/h (7 Bft) S-SW 195 ° 0 min 0 lux 0 W/m² -4,3 °C
05.02.2026 07:09 -3,1 °C 6,6 °C -3,6 °C 89 % 91 % 997,0 hPa 0,00 l/m² 51,3 km/h (7 Bft) S-SW 195 ° 0 min 0 lux 0 W/m² -4,6 °C
05.02.2026 07:24 -3,2 °C 6,6 °C -3,7 °C 89 % 90 % 997,0 hPa 0,00 l/m² 51,3 km/h (7 Bft) S-SW 195 ° 0 min 0 lux 0 W/m² -4,7 °C
05.02.2026 07:39 -3,3 °C 6,6 °C -3,7 °C 89 % 89 % 998,0 hPa 0,00 l/m² 51,3 km/h (7 Bft) S-SW 195 ° 0 min 56 lux 0 W/m² -4,8 °C
05.02.2026 07:54 -3,1 °C 6,6 °C -3,8 °C 88 % 89 % 998,0 hPa 0,00 l/m² 51,3 km/h (7 Bft) S-SW 195 ° 0 min 210 lux 0 W/m² -4,8 °C
05.02.2026 08:09 -3,2 °C 6,6 °C -3,7 °C 88 % 88 % 998,0 hPa 0,00 l/m² 51,3 km/h (7 Bft) S-SW 195 ° 0 min 564 lux 4 W/m² -4,9 °C
05.02.2026 08:24 -3,0 °C 6,6 °C -3,6 °C 88 % 88 % 998,0 hPa 0,00 l/m² 51,3 km/h (7 Bft) S-SW 195 ° 0 min 1,26 klux 8 W/m² -4,7 °C
05.02.2026 08:39 -2,9 °C 6,5 °C -3,4 °C 88 % 88 % 998,0 hPa 0,00 l/m² 51,3 km/h (7 Bft) S-SW 195 ° 0 min 1,95 klux 13 W/m² -4,6 °C
05.02.2026 08:54 -2,7 °C 6,5 °C -3,1 °C 87 % 88 % 997,9 hPa 0,00 l/m² 51,3 km/h (7 Bft) S-SW 195 ° 0 min 2,67 klux 17 W/m² -4,6 °C
05.02.2026 09:09 -2,6 °C 6,5 °C -2,7 °C 87 % 88 % 997,9 hPa 0,00 l/m² 51,3 km/h (7 Bft) S-SW 195 ° 0 min 3,58 klux 23 W/m² -4,5 °C
05.02.2026 09:24 -2,5 °C 6,5 °C -2,7 °C 87 % 86 % 997,9 hPa 0,00 l/m² 51,3 km/h (7 Bft) S-SW 195 ° 0 min 3,47 klux 23 W/m² -4,4 °C
05.02.2026 09:39 -2,2 °C 6,6 °C -2,4 °C 87 % 84 % 997,9 hPa 0,00 l/m² 51,3 km/h (7 Bft) S-SW 195 ° 0 min 6,30 klux 41 W/m² -4,1 °C
05.02.2026 09:54 -1,9 °C 6,5 °C -2,0 °C 86 % 82 % 997,9 hPa 0,00 l/m² 51,3 km/h (7 Bft) S-SW 195 ° 0 min 7,78 klux 51 W/m² -3,9 °C
05.02.2026 10:09 -2,0 °C 6,5 °C -2,3 °C 85 % 75 % 997,9 hPa 0,00 l/m² 51,3 km/h (7 Bft) S-SW 195 ° 0 min 9,4 klux 61 W/m² -4,2 °C
05.02.2026 10:24 -1,5 °C 6,6 °C -1,8 °C 85 % 76 % 997,8 hPa 0,00 l/m² 51,3 km/h (7 Bft) S-SW 195 ° 0 min 11,3 klux 74 W/m² -3,7 °C
05.02.2026 10:39 -0,9 °C 6,6 °C -1,0 °C 85 % 72 % 996,7 hPa 0,00 l/m² 51,3 km/h (7 Bft) S-SW 195 ° 0 min 15,5 klux 101 W/m² -3,1 °C
05.02.2026 10:54 -1,1 °C 6,6 °C -0,9 °C 83 % 68 % 996,7 hPa 0,00 l/m² 51,3 km/h (7 Bft) S-SW 195 ° 0 min 11,7 klux 76 W/m² -3,6 °C
05.02.2026 11:09 -1,0 °C 6,6 °C -0,8 °C 83 % 64 % 996,7 hPa 0,00 l/m² 51,3 km/h (7 Bft) S-SW 195 ° 0 min 12,0 klux 78 W/m² -3,5 °C
05.02.2026 11:24 -0,9 °C 6,6 °C -0,5 °C 82 % 63 % 996,7 hPa 0,00 l/m² 51,3 km/h (7 Bft) S-SW 195 ° 0 min 14,0 klux 91 W/m² -3,6 °C
05.02.2026 11:39 -0,4 °C 6,7 °C 0,3 °C 82 % 61 % 996,6 hPa 0,00 l/m² 51,3 km/h (7 Bft) S-SW 195 ° 0 min 14,1 klux 92 W/m² -3,1 °C
05.02.2026 11:54 -0,1 °C 6,7 °C 0,6 °C 81 % 60 % 996,6 hPa 0,00 l/m² 51,3 km/h (7 Bft) S-SW 195 ° 0 min 15,1 klux 98 W/m² -3,0 °C
05.02.2026 12:09 0,4 °C 6,7 °C 1,0 °C 80 % 58 % 996,6 hPa 0,00 l/m² 51,3 km/h (7 Bft) S-SW 195 ° 0 min 15,5 klux 101 W/m² -2,6 °C
05.02.2026 12:24 0,4 °C 6,7 °C 1,3 °C 80 % 57 % 996,6 hPa 0,00 l/m² 51,3 km/h (7 Bft) S-SW 195 ° 0 min 14,0 klux 91 W/m² -2,6 °C
05.02.2026 12:39 0,3 °C 6,7 °C 0,8 °C 79 % 57 % 996,6 hPa 0,00 l/m² 51,3 km/h (7 Bft) S-SW 195 ° 0 min 13,0 klux 85 W/m² -2,9 °C
05.02.2026 12:54 0,2 °C 6,8 °C 0,6 °C 80 % 58 % 996,6 hPa 0,00 l/m² 51,3 km/h (7 Bft) S-SW 195 ° 0 min 11,4 klux 74 W/m² -2,8 °C
05.02.2026 13:09 -0,1 °C 6,8 °C 0,5 °C 81 % 59 % 996,6 hPa 0,00 l/m² 51,3 km/h (7 Bft) S-SW 195 ° 0 min 12,0 klux 78 W/m² -3,0 °C
05.02.2026 13:24 0,2 °C 6,8 °C 0,7 °C 81 % 60 % 995,5 hPa 0,00 l/m² 51,3 km/h (7 Bft) S-SW 195 ° 0 min 12,7 klux 83 W/m² -2,7 °C
05.02.2026 13:39 0,3 °C 6,8 °C 0,7 °C 81 % 59 % 995,5 hPa 0,00 l/m² 51,3 km/h (7 Bft) S-SW 195 ° 0 min 11,5 klux 75 W/m² -2,6 °C
05.02.2026 13:54 0,3 °C 6,8 °C 0,5 °C 81 % 60 % 996,6 hPa 0,00 l/m² 51,3 km/h (7 Bft) S-SW 195 ° 0 min 10,7 klux 70 W/m² -2,6 °C
05.02.2026 14:09 0,2 °C 6,9 °C 0,6 °C 81 % 61 % 995,5 hPa 0,00 l/m² 51,3 km/h (7 Bft) S-SW 195 ° 0 min 11,9 klux 78 W/m² -2,7 °C
05.02.2026 14:24 0,3 °C 6,9 °C 0,8 °C 81 % 61 % 995,5 hPa 0,00 l/m² 51,3 km/h (7 Bft) S-SW 195 ° 0 min 12,3 klux 80 W/m² -2,6 °C
05.02.2026 14:39 0,3 °C 6,9 °C 0,8 °C 81 % 61 % 995,5 hPa 0,00 l/m² 51,3 km/h (7 Bft) S-SW 195 ° 0 min 12,2 klux 79 W/m² -2,6 °C
05.02.2026 14:54 0,3 °C 6,9 °C 0,6 °C 81 % 60 % 995,5 hPa 0,00 l/m² 51,3 km/h (7 Bft) S-SW 195 ° 0 min 11,7 klux 76 W/m² -2,6 °C
05.02.2026 15:09 0,2 °C 6,9 °C 0,7 °C 81 % 61 % 995,5 hPa 0,00 l/m² 51,3 km/h (7 Bft) S-SW 195 ° 0 min 12,3 klux 80 W/m² -2,7 °C
05.02.2026 15:24 -0,3 °C 7,0 °C 0,0 °C 82 % 61 % 995,6 hPa 0,00 l/m² 51,3 km/h (7 Bft) S-SW 195 ° 0 min 6,26 klux 41 W/m² -3,0 °C
05.02.2026 15:39 -0,2 °C 7,0 °C -0,1 °C 83 % 63 % 995,6 hPa 0,00 l/m² 51,3 km/h (7 Bft) S-SW 195 ° 0 min 4,16 klux 27 W/m² -2,7 °C
05.02.2026 15:54 -0,1 °C 7,0 °C 0,1 °C 83 % 64 % 995,6 hPa 0,00 l/m² 51,3 km/h (7 Bft) S-SW 195 ° 0 min 5,22 klux 34 W/m² -2,6 °C
05.02.2026 16:09 -0,1 °C 6,9 °C -0,1 °C 83 % 65 % 995,6 hPa 0,00 l/m² 51,3 km/h (7 Bft) S-SW 195 ° 0 min 4,79 klux 31 W/m² -2,6 °C
05.02.2026 16:24 -0,3 °C 7,0 °C -0,1 °C 84 % 65 % 995,6 hPa 0,00 l/m² 51,3 km/h (7 Bft) S-SW 195 ° 0 min 2,61 klux 17 W/m² -2,7 °C
05.02.2026 16:39 -0,3 °C 6,9 °C -0,1 °C 84 % 66 % 995,6 hPa 0,00 l/m² 51,3 km/h (7 Bft) S-SW 195 ° 0 min 2,56 klux 17 W/m² -2,7 °C
05.02.2026 16:54 -0,3 °C 7,0 °C -0,3 °C 84 % 66 % 995,6 hPa 0,00 l/m² 51,3 km/h (7 Bft) S-SW 195 ° 0 min 1,43 klux 9 W/m² -2,7 °C
05.02.2026 17:09 -0,5 °C 7,0 °C -0,4 °C 85 % 67 % 995,6 hPa 0,00 l/m² 51,3 km/h (7 Bft) S-SW 195 ° 0 min 744 lux 5 W/m² -2,7 °C
05.02.2026 17:24 -0,5 °C 6,9 °C -0,5 °C 86 % 69 % 994,6 hPa 0,00 l/m² 51,3 km/h (7 Bft) S-SW 195 ° 0 min 164 lux 0 W/m² -2,5 °C
05.02.2026 17:39 -0,4 °C 6,9 °C -0,4 °C 86 % 70 % 994,6 hPa 0,00 l/m² 51,3 km/h (7 Bft) S-SW 195 ° 0 min 43 lux 0 W/m² -2,4 °C
05.02.2026 17:54 -0,4 °C 7,0 °C -0,3 °C 86 % 71 % 994,6 hPa 0,00 l/m² 51,3 km/h (7 Bft) S-SW 195 ° 0 min 2 lux 0 W/m² -2,4 °C
05.02.2026 18:09 -0,5 °C 6,9 °C -0,4 °C 86 % 72 % 994,6 hPa 0,00 l/m² 51,3 km/h (7 Bft) S-SW 195 ° 0 min 0 lux 0 W/m² -2,5 °C
05.02.2026 18:24 -0,5 °C 6,9 °C -0,5 °C 86 % 75 % 994,6 hPa 0,00 l/m² 51,3 km/h (7 Bft) S-SW 195 ° 0 min 0 lux 0 W/m² -2,5 °C
05.02.2026 18:39 -0,5 °C 6,9 °C -0,5 °C 87 % 78 % 994,6 hPa 0,00 l/m² 51,3 km/h (7 Bft) S-SW 195 ° 0 min 0 lux 0 W/m² -2,4 °C
05.02.2026 18:54 -0,6 °C 6,9 °C -0,6 °C 87 % 80 % 994,6 hPa 0,00 l/m² 51,3 km/h (7 Bft) S-SW 195 ° 0 min 0 lux 0 W/m² -2,5 °C
05.02.2026 19:09 -0,7 °C 6,9 °C -0,6 °C 87 % 83 % 994,6 hPa 0,00 l/m² 51,3 km/h (7 Bft) S-SW 195 ° 0 min 0 lux 0 W/m² -2,6 °C
05.02.2026 19:24 -0,7 °C 6,9 °C -0,7 °C 88 % 84 % 994,6 hPa 0,00 l/m² 51,3 km/h (7 Bft) S-SW 195 ° 0 min 0 lux 0 W/m² -2,4 °C
05.02.2026 19:39 -0,8 °C 6,9 °C -0,7 °C 88 % 86 % 994,6 hPa 0,00 l/m² 51,3 km/h (7 Bft) S-SW 195 ° 0 min 0 lux 0 W/m² -2,5 °C
05.02.2026 19:54 -0,9 °C 6,9 °C -0,9 °C 88 % 87 % 994,6 hPa 0,00 l/m² 51,3 km/h (7 Bft) S-SW 195 ° 0 min 0 lux 0 W/m² -2,6 °C
05.02.2026 20:09 -1,1 °C 6,8 °C -1,1 °C 89 % 88 % 994,7 hPa 0,00 l/m² 51,3 km/h (7 Bft) S-SW 195 ° 0 min 0 lux 0 W/m² -2,7 °C
05.02.2026 20:24 -1,3 °C 6,8 °C -1,3 °C 89 % 89 % 994,7 hPa 0,00 l/m² 51,3 km/h (7 Bft) S-SW 195 ° 0 min 0 lux 0 W/m² -2,9 °C
05.02.2026 20:39 -1,3 °C 6,8 °C -1,2 °C 89 % 91 % 994,7 hPa 0,00 l/m² 51,3 km/h (7 Bft) S-SW 195 ° 0 min 0 lux 0 W/m² -2,9 °C
05.02.2026 20:54 -1,1 °C 6,8 °C -1,1 °C 89 % 91 % 994,7 hPa 0,00 l/m² 51,3 km/h (7 Bft) S-SW 195 ° 0 min 0 lux 0 W/m² -2,7 °C
05.02.2026 21:09 -1,1 °C 6,8 °C -1,1 °C 89 % 91 % 994,7 hPa 0,00 l/m² 51,3 km/h (7 Bft) S-SW 195 ° 0 min 0 lux 0 W/m² -2,7 °C
05.02.2026 21:24 -1,0 °C 6,8 °C -1,0 °C 89 % 92 % 993,6 hPa 0,00 l/m² 51,3 km/h (7 Bft) S-SW 195 ° 0 min 0 lux 0 W/m² -2,6 °C
05.02.2026 21:39 -1,0 °C 6,8 °C -1,0 °C 89 % 92 % 993,6 hPa 0,00 l/m² 51,3 km/h (7 Bft) S-SW 195 ° 0 min 0 lux 0 W/m² -2,6 °C
05.02.2026 21:54 -1,0 °C 6,8 °C -1,1 °C 90 % 92 % 993,6 hPa 0,00 l/m² 51,3 km/h (7 Bft) S-SW 195 ° 0 min 0 lux 0 W/m² -2,4 °C
05.02.2026 22:09 -1,0 °C 6,8 °C -1,1 °C 90 % 92 % 993,6 hPa 0,00 l/m² 51,3 km/h (7 Bft) S-SW 195 ° 0 min 0 lux 0 W/m² -2,4 °C
05.02.2026 22:25 -0,9 °C 6,7 °C -1,0 °C 90 % 92 % 993,6 hPa 0,00 l/m² 51,3 km/h (7 Bft) S-SW 195 ° 0 min 0 lux 0 W/m² -2,3 °C
05.02.2026 22:45 -0,9 °C 6,7 °C -0,9 °C 90 % 93 % 993,6 hPa 0,00 l/m² 51,3 km/h (7 Bft) S-SW 195 ° 0 min 0 lux 0 W/m² -2,3 °C
05.02.2026 23:00 -0,7 °C 6,7 °C -0,8 °C 90 % 93 % 992,6 hPa 0,00 l/m² 51,3 km/h (7 Bft) S-SW 195 ° 0 min 0 lux 0 W/m² -2,1 °C
05.02.2026 23:15 -0,7 °C 6,7 °C -0,7 °C 90 % 93 % 992,6 hPa 0,00 l/m² 51,3 km/h (7 Bft) S-SW 195 ° 0 min 0 lux 0 W/m² -2,1 °C
05.02.2026 23:30 -0,5 °C 6,7 °C -0,7 °C 90 % 93 % 992,5 hPa 0,00 l/m² 51,3 km/h (7 Bft) S-SW 195 ° 0 min 0 lux 0 W/m² -1,9 °C
05.02.2026 23:45 -0,5 °C 6,7 °C -0,6 °C 90 % 93 % 992,5 hPa 0,00 l/m² 51,3 km/h (7 Bft) S-SW 195 ° 0 min 0 lux 0 W/m² -1,9 °C
_ Min-Zeit 07:39 08:39 07:54 12:39 12:24 23:30 - 00:09 - - - - - 08:09
Minimum _ -3,3 °C 6,5 °C -3,8 °C 79 % 57 % 992,5 hPa - 51,3 km/h (7 Bft) - - - - - -4,9 °C
_ Max-Zeit 12:09 00:24 12:24 06:09 22:45 00:09 00:09 00:09 - - 00:09 10:39 10:39 23:30
Maximum _ 0,4 °C 7,0 °C 1,3 °C 90 % 93 % 998,9 hPa 0,00 l/m² 51,3 km/h
S-SW (7 Bft)
- - 0 min 15,5 klux 101 W/m² -1,9 °C
Durchschnitt _ -1,3 °C 6,8 °C -1,4 °C 87 % 80 % 996,3 hPa #0,00 l/m² 51,3 km/h (7 Bft) S-SW - #0 min. 3,37 klux 56 W/m² -3,3 °C